This demonstration page uses our WeatherBlox Daily Observations layout. Learn more.

Left ArrowRight Arrow

40.92945, -100.16068

Hourly Observations for February 14, 2018

Temp ( °F °C ) Dew Point ( °F °C ) Humidity (%) Winds ( mph kmh ) Pressure ( in mb ) Visibility ( mi km ) Precip ( " mm )
12:15 am 00:15 Partly Cloudy with Mist and Fog 19 -7.4 16 -9.1 88 88 S 3 6 30.21 1023 5 8.0467 0 0
12:35 am 00:35 Clear 20 -6.9 17 -8.6 88 88 Calm 30.21 1023 7 11.26538 0 0
12:55 am 00:55 Clear 17 -8.5 13 -10.5 86 86 Calm 30.24 1024 7 11.26538 0 0
1:15 am 01:15 Clear 21 -6.2 18 -7.8 89 89 S 5 7 30.21 1023 7 11.26538 0 0
1:35 am 01:35 Clear 19 -7.2 15 -9.4 84 84 Calm 30.21 1023 7 11.26538 0 0
1:55 am 01:55 Clear 18 -7.8 15 -9.5 88 88 NW 3 6 30.24 1024 7 11.26538 0 0
2:15 am 02:15 Clear with Mist and Fog 17 -8.3 14 -10 88 88 Calm 30.24 1024 5 8.0467 0 0
2:35 am 02:35 Clear with Mist and Fog 17 -8.3 14 -10.1 87 87 Calm 30.24 1024 5 8.0467 0 0
2:55 am 02:55 Clear with Mist and Fog 16 -8.9 13 -10.6 88 88 Calm 30.21 1023 5 8.0467 0 0
3:15 am 03:15 Clear with Mist and Fog 17 -8.4 14 -10.1 88 88 Calm 30.21 1023 5 8.0467 0 0
3:35 am 03:35 Clear with Mist and Fog 17 -8.6 13 -10.4 87 87 Calm 30.21 1023 5 8.0467 0 0
3:55 am 03:55 Clear with Mist and Fog 15 -9.5 12 -11.3 87 87 Calm 30.21 1023 5 8.0467 0 0
4:15 am 04:15 Clear with Mist and Fog 15 -9.5 12 -11.3 87 87 Calm 30.18 1022 5 8.0467 0 0
4:35 am 04:35 Clear with Mist and Fog 15 -9.2 12 -11 87 87 NNW 8 13 30.18 1022 5 8.0467 0 0
4:55 am 04:55 Clear with Mist and Fog 15 -9.3 12 -11 88 88 Calm 30.18 1022 5 8.0467 0 0
5:15 am 05:15 Clear with Mist and Fog 16 -8.8 13 -10.5 88 88 Calm 30.18 1022 5 8.0467 0 0
5:35 am 05:35 Clear 17 -8.5 13 -10.4 86 86 Calm 30.18 1022 7 11.26538 0 0
5:55 am 05:55 Clear with Mist and Fog 17 -8.1 14 -9.9 87 87 SSW 5 7 30.15 1021 5 8.0467 0 0
6:15 am 06:15 Clear with Mist and Fog 19 -7.3 16 -9.1 87 87 NW 7 11 30.15 1021 5 8.0467 0 0
6:35 am 06:35 Clear with Mist and Fog 19 -7.3 16 -9.1 87 87 NW 5 7 30.15 1021 5 8.0467 0 0
6:55 am 06:55 Clear with Mist and Fog 19 -7.5 15 -9.2 88 88 NW 6 9 30.15 1021 5 8.0467 0 0
7:15 am 07:15 Clear with Mist and Fog 19 -7.1 16 -8.8 88 88 W 6 9 30.15 1021 5 8.0467 0 0
7:35 am 07:35 Sunny with Mist and Fog 20 -6.8 17 -8.6 87 87 WNW 7 11 30.15 1021 5 8.0467 0 0
7:55 am 07:55 Sunny with Mist and Fog 20 -6.5 17 -8.2 88 88 W 5 7 30.15 1021 5 8.0467 0 0
8:15 am 08:15 Sunny with Mist and Fog 21 -6 18 -8 86 86 W 7 11 30.15 1021 5 8.0467 0 0
8:35 am 08:35 Sunny with Mist and Fog 22 -5.6 18 -7.6 86 86 W 5 7 30.15 1021 5 8.0467 0 0
8:55 am 08:55 Sunny with Mist and Fog 22 -5.5 18 -7.6 85 85 Calm 30.15 1021 5 8.0467 0 0
9:15 am 09:15 Sunny with Mist and Fog 23 -4.9 19 -7.2 84 84 WSW 3 6 30.12 1020 5 8.0467 0 0
9:35 am 09:35 Sunny 25 -4 20 -6.5 83 83 W 6 9 30.12 1020 7 11.26538 0 0
9:55 am 09:55 Sunny 26 -3.5 21 -6 83 83 WNW 5 7 30.12 1020 7 11.26538 0 0
10:15 am 10:15 Sunny 27 -2.8 22 -5.8 80 80 WNW 7 11 30.06 1018 7 11.26538 0 0
10:35 am 10:35 Hazy 28 -2 23 -5 80 80 Calm 30.06 1018 5 8.0467 0 0
10:55 am 10:55 Sunny 30 -1.2 24 -4.4 79 79 W 3 6 30.06 1018 7 11.26538 0 0
11:15 am 11:15 Sunny 32 0 25 -3.8 76 76 Calm 30.06 1018 7 11.26538 0 0
11:35 am 11:35 Sunny 32 0.1 27 -3 80 80 Calm 30 1016 7 11.26538 0 0
11:55 am 11:55 Sunny 33 0.7 28 -2.1 82 82 Calm 30 1016 7 11.26538 0 0
12:15 pm 12:15 Sunny 35 1.4 28 -2.1 78 78 Calm 30 1016 7 11.26538 0 0
12:35 pm 12:35 Sunny 36 2.2 29 -1.5 77 77 Calm 29.97 1015 7 11.26538 0 0
12:55 pm 12:55 Sunny 37 2.8 30 -1 76 76 Calm 29.94 1014 7 11.26538 0 0
1:15 pm 13:15 Sunny 38 3.2 29 -1.8 70 70 SSW 3 6 29.94 1014 7 11.26538 0 0
1:35 pm 13:35 Sunny 38 3.3 29 -1.4 72 72 Calm 29.91 1013 7 11.26538 0 0
1:55 pm 13:55 Sunny 40 4.6 30 -1.1 67 67 SW 5 7 29.88 1012 10 16.0934 0 0
2:15 pm 14:15 Sunny 41 4.8 30 -1.2 65 65 Calm 29.88 1012 10 16.0934 0 0
2:35 pm 14:35 Sunny 44 6.9 31 -0.8 58 58 WSW 3 6 29.85 1011 10 16.0934 0 0
2:55 pm 14:55 Sunny 41 4.8 31 -0.4 69 69 Calm 29.88 1012 10 16.0934 0 0
3:15 pm 15:15 Sunny 41 5 31 -0.4 68 68 Calm 29.88 1012 10 16.0934 0 0
3:35 pm 15:35 Sunny 45 7.2 30 -1 56 56 SSW 8 13 29.83 1010 10 16.0934 0 0
3:55 pm 15:55 Sunny 46 7.5 30 -1.3 54 54 Calm 29.83 1010 10 16.0934 0 0
4:15 pm 16:15 Sunny 44 6.4 30 -1 59 59 Calm 29.83 1010 10 16.0934 0 0
4:35 pm 16:35 Sunny 45 7.3 30 -1.2 55 55 SW 8 13 29.83 1010 10 16.0934 0 0
4:55 pm 16:55 Sunny 44 6.4 30 -1.2 59 59 Calm 29.83 1010 10 16.0934 0 0
5:15 pm 17:15 Sunny 44 6.5 30 -1 59 59 Calm 29.83 1010 10 16.0934 0 0
5:35 pm 17:35 Sunny 43 6 31 -0.5 63 63 S 3 6 29.8 1009 10 16.0934 0 0
5:55 pm 17:55 Sunny 40 4.7 32 0 72 72 SSW 7 11 29.8 1009 10 16.0934 0 0
6:15 pm 18:15 Clear 40 4.5 32 0 73 73 S 3 6 29.8 1009 10 16.0934 0 0
6:35 pm 18:35 Clear 41 5 32 0.1 71 71 Calm 29.8 1009 10 16.0934 0 0
6:55 pm 18:55 Clear 37 2.6 32 -0.1 83 83 E 3 6 29.83 1010 10 16.0934 0 0
7:15 pm 19:15 Clear 37 3 32 0 81 81 NNE 5 7 29.83 1010 10 16.0934 0 0
7:35 pm 19:35 Clear 38 3.1 32 -0.1 80 80 NE 3 6 29.83 1010 10 16.0934 0 0
7:55 pm 19:55 Clear 37 2.6 31 -0.3 81 81 Calm 29.83 1010 10 16.0934 0 0
8:15 pm 20:15 Clear 37 2.6 32 -0.2 82 82 NE 3 6 29.8 1009 10 16.0934 0 0
8:35 pm 20:35 Clear 37 2.8 32 0 82 82 NNE 5 7 29.8 1009 10 16.0934 0 0
8:55 pm 20:55 Clear 36 2.4 32 0 84 84 Calm 29.8 1009 10 16.0934 0 0
9:15 pm 21:15 Clear 36 2.2 32 0 86 86 Calm 29.8 1009 10 16.0934 0 0
9:35 pm 21:35 Clear 37 2.6 32 0 83 83 Calm 29.8 1009 10 16.0934 0 0
9:55 pm 21:55 Clear 35 1.9 32 -0.1 87 87 NNW 3 6 29.8 1009 10 16.0934 0 0
10:15 pm 22:15 Clear 36 2.3 32 0 85 85 N 8 13 29.83 1010 10 16.0934 0 0
10:35 pm 22:35 Clear 36 2.3 32 0 85 85 NNE 5 7 29.8 1009 10 16.0934 0 0
10:55 pm 22:55 Clear 36 2.2 32 0 86 86 Calm 29.8 1009 10 16.0934 0 0
11:15 pm 23:15 Clear 36 2.4 32 0 84 84 Calm 29.8 1009 10 16.0934 0 0
11:35 pm 23:35 Clear 35 1.7 32 0 89 89 W 5 7 29.8 1009 10 16.0934 0 0
11:55 pm 23:55 Clear 35 1.6 32 0 89 89 W 5 7 29.8 1009 10 16.0934 0 0

Powered by AerisWeather